Volver al catálogo

STARLINK-37333

ActivoComunicacionesVLEO
NORAD 69174·PAYLOAD·🇺🇸 United States

Lanzado May 21, 2026 desde Cape Canaveral Space Force Station

Loading…

Próximos Pases (próximas 24 horas)

TLE

ActualizadoSource: CelesTrak SupGP

Época: Sep 14, 2026, 16:12 UTC

1 69174C 26111AC  26257.67548611 -.00035491  00000+0 -10485-2 0  2578
2 69174  53.1568  92.7429 0001385  94.1860  43.1720 15.34412482    17

Sigue STARLINK-37333 en tiempo real con AllMySat

Download on the App Store